This is the latest recevied weather packets stored in our database for station/object KA9CBS. If no packets are shown the sender has not sent any weather packets the latest 10 day(s).
| Time | Temp. | Humidity | Pressure | Rain* | Wind** | Luminosity | Snow |
|---|---|---|---|---|---|---|---|
| 1778134388 | 7.78° C | 83% | 1018.2 hPa | 0 mm | - | 0 W/m² | - |
| 1778134087 | 7.78° C | 82% | 1018.1 hPa | 0 mm | - | 0 W/m² | - |
| 1778133783 | 7.78° C | 82% | 1018.4 hPa | 0 mm | - | 0 W/m² | - |
| 1778133479 | 7.78° C | 83% | 1018.3 hPa | 0 mm | - | 0 W/m² | - |
| 1778133174 | 7.78° C | 83% | 1018.3 hPa | 0 mm | - | 0 W/m² | - |
| 1778132871 | 7.78° C | 84% | 1018.3 hPa | 0 mm | - | 0 W/m² | - |
| 1778132568 | 7.78° C | 85% | 1018.3 hPa | 0 mm | - | 0 W/m² | - |
| 1778132265 | 7.78° C | 85% | 1018.4 hPa | 0 mm | - | 0 W/m² | - |
| 1778131962 | 7.78° C | 85% | 1018.4 hPa | 0 mm | - | 0 W/m² | - |
| 1778131661 | 7.78° C | 84% | 1018.2 hPa | 0 mm | - | 0 W/m² | - |
| 1778131357 | 7.78° C | 84% | 1018.2 hPa | 0 mm | - | 0 W/m² | - |
| 1778131056 | 7.78° C | 85% | 1018.4 hPa | 0 mm | - | 0 W/m² | - |
| 1778130752 | 7.78° C | 85% | 1018.1 hPa | 0 mm | - | 0 W/m² | - |
| 1778130449 | 7.78° C | 87% | 1018.3 hPa | 0 mm | - | 0 W/m² | - |
| 1778130146 | 7.78° C | 87% | 1018.2 hPa | 0 mm | - | 0 W/m² | - |
| 1778129843 | 7.78° C | 88% | 1018.2 hPa | 0 mm | - | 0 W/m² | - |
| 1778129539 | 7.78° C | 89% | 1018.1 hPa | 0 mm | - | 0 W/m² | - |
| 1778129236 | 7.78° C | 89% | 1018.1 hPa | 0 mm | - | 0 W/m² | - |
| 1778128932 | 7.78° C | 89% | 1018.2 hPa | 0 mm | - | 0 W/m² | - |
| 1778128629 | 7.78° C | 90% | 1018.2 hPa | 0 mm | - | 0 W/m² | - |
| 1778128326 | 7.78° C | 90% | 1018.1 hPa | 0 mm | - | 0 W/m² | - |
| 1778128022 | 8.33° C | 89% | 1017.9 hPa | 0 mm | - | 0 W/m² | - |
| 1778127717 | 8.33° C | 86% | 1018 hPa | 0 mm | - | 0 W/m² | - |
| 1778127415 | 8.33° C | 84% | 1018 hPa | 0 mm | - | 0 W/m² | - |
| 1778127110 | 7.78° C | 88% | 1018.1 hPa | 0 mm | - | 0 W/m² | - |
* Rain latest hour (hover to see other rain measurements)
** Current wind speed in m/s (hover to see current wind gust speed)